Location: ??????
(38.0131°N, 23.7723°E)
Time: 06:00:03
(UTC+00:00)

Cosmos 1605 Rocket - Pass Details

Date: 17 October 2021
Orbit: 945 x 1005 km, 82.9° (Epoch: 28 November)

Event Time Altitude Azimuth Distance (km) Brightness Sun altitude
Rises 17:26:49 0° 178° (S) 3,632 6.9 -20.9°
Reaches altitude 10° 17:29:17 10° 176° (S) 2,697 6.2 -21.4°
Maximum altitude 17:35:26 71° 94° (E) 1,034 3.9 -22.6°
Drops below altitude 10° 17:41:43 10° 11° (NNE) 2,756 6.3 -23.8°
Sets 17:44:16 0° 10° (N) 3,716 7.0 -24.3°
